Regional Weather Roundup
Issued by NWS

Home | Current Version | Previous Version | Graphics & Text | Print | Product List | Glossary On
Versions: 1 2 3 4 5 6 7 8 9 10 11 12 13 14 15 16 17 18 19 20 21 22 23 24 25 26 27 28 29 30 31 32 33 34 35 36 37 38 39 40 41 42 43 44 45 46 47 48 49 50
000
ASUS43 KLMK 220802
RWRKY
KENTUCKY REGIONAL WEATHER ROUNDUP
NATIONAL WEATHER SERVICE LOUISVILLE KY
400 AM EDT THU JUN 22 2017

NOTE "FAIR" INDICATES FEW OR NO CLOUDS BELOW 12,000 FEET
WITH NO SIGNIFICANT WEATHER AND/OR OBSTRUCTIONS TO VISIBILITY.

KYZ001>023-026-027-061>063-070>075-220900-
WESTERN AND SOUTH CENTRAL KENTUCKY

CITY           SKY/WX    TMP DP  RH WIND       PRES   REMARKS
PADUCAH        MOCLDY    73  68  84 SE6       29.94S
HENDERSON      MOCLDY    71  68  90 CALM      29.97F
OWENSBORO      MOCLDY    73  69  87 SE5       29.98F
HOPKINSVILLE   CLOUDY    74  68  80 SE6       29.98S
BOWLING GREEN  CLOUDY    75  69  81 S5        30.00F
GLASGOW        NOT AVBL
$$

KYZ024-025-028>034-038-045-046-053-220900-
NORTH CENTRAL KENTUCKY

CITY           SKY/WX    TMP DP  RH WIND       PRES   REMARKS
LOUISVILLE/SDF CLOUDY    77  68  73 SW6       30.01R
LOUISVILLE/LOU CLOUDY    75  69  81 CALM      30.02S
FORT KNOX      CLOUDY    71  68  92 CALM      30.00S
$$

KYZ035>037-039>044-047>052-055>060-089>105-220900-
NORTHEAST KENTUCKY

CITY           SKY/WX    TMP DP  RH WIND       PRES   REMARKS
LEXINGTON      CLOUDY    72  65  78 S7        30.05S
COVINGTON      CLOUDY    71  67  87 S6        30.02R
FRANKFORT      CLOUDY    72  65  78 S5        30.02F
$$

KYZ054-064>069-076>088-106>120-220900-
SOUTHEAST KENTUCKY

CITY           SKY/WX    TMP DP  RH WIND       PRES   REMARKS
JACKSON        MOCLDY    71  65  81 CALM      30.08S
LONDON         CLOUDY    68  64  87 CALM      30.07F
SOMERSET       CLOUDY    70  68  94 CALM      30.07S
MIDDLESBORO    PTCLDY    66  66 100 CALM      30.09F
MONTICELLO     NOT AVBL
$$





USA.gov is the U.S. government's official web portal to all federal, state and local government web resources and services.